• In Belarus
  • List of Countries
  • For 7 days
  • Water Temperature
  • Satellite Maps
  • Weather Map
  • Weather Widgets
  • user-avatar
    Login

    Hourly Weather Bruges

    Today, 20 March, Wednesday

    Time Temperature Precipitation Wind Pressure Humidity
    00:00 +6°C° 0 mm 4 mps 772 mmHg 94%
    01:00 +6°C° 0 mm 4 mps 772 mmHg 94%
    02:00 +6°C° 0 mm 4 mps 772 mmHg 94%
    03:00 +5°C° 0 mm 4 mps 772 mmHg 93%
    04:00 +5°C° 0 mm 4 mps 773 mmHg 94%
    05:00 +5°C° 0 mm 4 mps 773 mmHg 94%
    06:00 +5°C° 0 mm 4 mps 773 mmHg 94%
    07:00 +6°C° 0 mm 4 mps 773 mmHg 91%
    08:00 +7°C° 0 mm 4 mps 773 mmHg 88%
    09:00 +10°C° 0 mm 4 mps 773 mmHg 84%
    10:00 +11°C° 0 mm 4 mps 774 mmHg 80%
    11:00 +12°C° 0 mm 4 mps 774 mmHg 77%
    12:00 +13°C° 0 mm 4 mps 774 mmHg 73%
    13:00 +12°C° 0 mm 4 mps 774 mmHg 74%
    14:00 +12°C° 0 mm 4 mps 774 mmHg 75%
    15:00 +12°C° 0 mm 4 mps 774 mmHg 75%
    16:00 +12°C° 0 mm 3 mps 774 mmHg 78%
    17:00 +11°C° 0 mm 3 mps 773 mmHg 81%
    18:00 +10°C° 0 mm 2 mps 773 mmHg 84%
    19:00 +10°C° 0 mm 2 mps 774 mmHg 85%
    20:00 +10°C° 0 mm 2 mps 774 mmHg 86%
    21:00 +9°C° 0 mm 3 mps 774 mmHg 87%
    22:00 +9°C° 0 mm 3 mps 774 mmHg 89%
    23:00 +8°C° 0 mm 3 mps 774 mmHg 90%

    Tomorrow, 21 March, Thursday

    Time Temperature Precipitation Wind Pressure Humidity
    00:00 +8°C° 0 mm 3 mps 774 mmHg 92%
    01:00 +7°C° 0 mm 3 mps 774 mmHg 92%
    02:00 +7°C° 0 mm 3 mps 774 mmHg 92%
    03:00 +7°C° 0 mm 3 mps 774 mmHg 93%
    04:00 +7°C° 0 mm 3 mps 774 mmHg 93%
    05:00 +7°C° 0 mm 3 mps 774 mmHg 93%
    06:00 +5°C° 0 mm 3 mps 774 mmHg 93%
    07:00 +8°C° 0 mm 3 mps 774 mmHg 89%
    08:00 +9°C° 0 mm 3 mps 774 mmHg 84%
    09:00 +11°C° 0 mm 3 mps 775 mmHg 79%
    10:00 +12°C° 0 mm 3 mps 774 mmHg 76%
    11:00 +13°C° 0 mm 3 mps 774 mmHg 73%
    12:00 +14°C° 0 mm 3 mps 774 mmHg 71%
    13:00 +14°C° 0 mm 3 mps 774 mmHg 71%
    14:00 +15°C° 0 mm 2 mps 773 mmHg 71%
    15:00 +15°C° 0 mm 2 mps 773 mmHg 72%
    16:00 +14°C° 0 mm 2 mps 773 mmHg 76%
    17:00 +13°C° 0 mm 2 mps 773 mmHg 81%
    18:00 +12°C° 0 mm 1 mps 773 mmHg 86%
    19:00 +11°C° 0 mm 1 mps 773 mmHg 87%
    20:00 +11°C° 0 mm 1 mps 773 mmHg 89%
    21:00 +10°C° 0 mm 1 mps 773 mmHg 90%
    22:00 +10°C° 0 mm 1 mps 773 mmHg 91%
    23:00 +10°C° 0 mm 1 mps 773 mmHg 91%

    Day after tomorrow, 22 March, Friday

    Time Temperature Precipitation Wind Pressure Humidity
    00:00 +10°C° 0 mm 1 mps 773 mmHg 91%
    01:00 +9°C° 0 mm 1 mps 773 mmHg 92%
    02:00 +8°C° 0 mm 2 mps 772 mmHg 92%
    03:00 +8°C° 0 mm 2 mps 772 mmHg 93%
    04:00 +8°C° 0 mm 2 mps 772 mmHg 93%
    05:00 +8°C° 0 mm 2 mps 772 mmHg 93%
    06:00 +7°C° 0 mm 2 mps 772 mmHg 93%
    07:00 +9°C° 0 mm 2 mps 772 mmHg 88%
    08:00 +10°C° 0 mm 2 mps 772 mmHg 84%
    09:00 +13°C° 0 mm 2 mps 772 mmHg 79%
    10:00 +14°C° 0 mm 2 mps 771 mmHg 74%
    11:00 +15°C° 0 mm 2 mps 771 mmHg 69%
    12:00 +17°C° 0 mm 3 mps 770 mmHg 64%
    13:00 +17°C° 0 mm 3 mps 770 mmHg 62%
    14:00 +17°C° 0 mm 3 mps 769 mmHg 60%
    15:00 +18°C° 0 mm 3 mps 769 mmHg 57%
    16:00 +16°C° 0 mm 3 mps 769 mmHg 64%
    17:00 +13°C° 0 mm 3 mps 769 mmHg 71%
    18:00 +12°C° 0 mm 3 mps 770 mmHg 77%
    19:00 +11°C° 0 mm 3 mps 770 mmHg 78%
    20:00 +10°C° 0 mm 3 mps 770 mmHg 80%
    21:00 +9°C° 0 mm 3 mps 770 mmHg 81%
    22:00 +9°C° 0 mm 3 mps 771 mmHg 84%
    23:00 +9°C° 0 mm 3 mps 771 mmHg 87%

    23 March, Saturday

    Time Temperature Precipitation Wind Pressure Humidity
    00:00 +8°C° 0 mm 3 mps 771 mmHg 90%
    01:00 +8°C° 0 mm 3 mps 771 mmHg 91%
    02:00 +8°C° 0 mm 2 mps 771 mmHg 92%
    03:00 +8°C° 0 mm 2 mps 771 mmHg 94%
    04:00 +8°C° 0 mm 2 mps 772 mmHg 94%
    05:00 +8°C° 0 mm 2 mps 772 mmHg 95%
    06:00 +8°C° 0 mm 2 mps 772 mmHg 95%
    07:00 +9°C° 0 mm 2 mps 772 mmHg 91%
    08:00 +10°C° 0 mm 3 mps 773 mmHg 86%
    09:00 +12°C° 0 mm 3 mps 773 mmHg 82%
    10:00 +13°C° 0 mm 3 mps 773 mmHg 78%
    11:00 +13°C° 0 mm 3 mps 773 mmHg 74%
    12:00 +14°C° 0 mm 4 mps 773 mmHg 71%
    13:00 +14°C° 0 mm 4 mps 772 mmHg 71%
    14:00 +13°C° 0 mm 5 mps 772 mmHg 71%
    15:00 +13°C° 0 mm 6 mps 772 mmHg 72%
    16:00 +12°C° 0 mm 5 mps 772 mmHg 74%
    17:00 +10°C° 0 mm 5 mps 772 mmHg 75%
    18:00 +9°C° 0 mm 5 mps 772 mmHg 77%
    19:00 +10°C° 0 mm 4 mps 772 mmHg 78%
    20:00 +8°C° 0 mm 4 mps 772 mmHg 80%
    21:00 +7°C° 0 mm 4 mps 772 mmHg 81%
    22:00 +8°C° 0 mm 3 mps 772 mmHg 81%
    23:00 +8°C° 0 mm 3 mps 771 mmHg 82%

    24 March, Sunday

    Time Temperature Precipitation Wind Pressure Humidity
    00:00 +7°C° 0 mm 3 mps 771 mmHg 82%
    01:00 +7°C° 0 mm 3 mps 771 mmHg 84%
    02:00 +7°C° 0 mm 3 mps 771 mmHg 85%
    03:00 +5°C° 0 mm 4 mps 771 mmHg 86%
    04:00 +5°C° 0 mm 3 mps 770 mmHg 83%
    05:00 +7°C° 0 mm 3 mps 770 mmHg 80%
    06:00 +7°C° 0 mm 3 mps 770 mmHg 78%
    07:00 +8°C° 0 mm 3 mps 771 mmHg 75%
    08:00 +8°C° 0 mm 3 mps 771 mmHg 72%
    09:00 +9°C° 0 mm 3 mps 771 mmHg 69%
    10:00 +10°C° 0 mm 4 mps 771 mmHg 66%
    11:00 +11°C° 0 mm 4 mps 771 mmHg 64%
    12:00 +12°C° 0 mm 5 mps 771 mmHg 62%
    13:00 +12°C° 0 mm 5 mps 770 mmHg 61%
    14:00 +10°C° 0 mm 5 mps 770 mmHg 61%
    15:00 +10°C° 0 mm 5 mps 770 mmHg 60%
    16:00 +9°C° 0 mm 5 mps 770 mmHg 62%
    17:00 +8°C° 0 mm 4 mps 770 mmHg 64%
    18:00 +6°C° 0 mm 4 mps 771 mmHg 65%
    19:00 +7°C° 0 mm 3 mps 771 mmHg 68%
    20:00 +6°C° 0 mm 2 mps 771 mmHg 70%
    21:00 +6°C° 0 mm 2 mps 772 mmHg 72%
    22:00 +6°C° 0 mm 2 mps 772 mmHg 74%
    23:00 +6°C° 0 mm 2 mps 772 mmHg 75%

    25 March, Monday

    Time Temperature Precipitation Wind Pressure Humidity
    00:00 +5°C° 0 mm 3 mps 771 mmHg 76%
    01:00 +5°C° 0 mm 3 mps 771 mmHg 79%
    02:00 +5°C° 0 mm 4 mps 771 mmHg 81%
    03:00 +5°C° 0 mm 5 mps 771 mmHg 84%
    04:00 +5°C° 0 mm 5 mps 771 mmHg 84%
    05:00 +5°C° 0 mm 5 mps 771 mmHg 84%
    06:00 +5°C° 0 mm 5 mps 771 mmHg 84%
    07:00 +6°C° 0 mm 5 mps 771 mmHg 80%
    08:00 +7°C° 0 mm 6 mps 771 mmHg 76%
    09:00 +8°C° 0 mm 7 mps 772 mmHg 71%
    10:00 +8°C° 0.1 mm 7 mps 772 mmHg 68%
    11:00 +7°C° 0.1 mm 8 mps 772 mmHg 65%
    12:00 +9°C° 0.1 mm 8 mps 772 mmHg 62%
    13:00 +7°C° 0 mm 8 mps 772 mmHg 62%
    14:00 +6°C° 0 mm 8 mps 772 mmHg 62%
    15:00 +6°C° 0 mm 8 mps 772 mmHg 62%
    16:00 +5°C° 0 mm 7 mps 773 mmHg 61%
    17:00 +5°C° 0 mm 7 mps 773 mmHg 60%
    18:00 +5°C° 0 mm 7 mps 773 mmHg 59%
    19:00 +4°C° 0 mm 7 mps 773 mmHg 59%
    20:00 +4°C° 0 mm 6 mps 774 mmHg 60%
    21:00 +4°C° 0 mm 6 mps 774 mmHg 60%
    22:00 +4°C° 0 mm 6 mps 774 mmHg 61%
    23:00 +4°C° 0 mm 6 mps 775 mmHg 62%
    Show more